Location: Baller�as
(41.9020°N, 0.1554°W)
Time: 00:50:45
(UTC+00:00)

Cosmos 2322 Rocket - Pass Details

Date: 10 August 2020
Orbit: 831 x 852 km, 71.0° (Epoch: 22 September)

Event Time Altitude Azimuth Distance (km) Brightness Sun altitude
Rises 23:11:14 0° 327° (NNW) 3,419 6.4 -31.5°
Reaches altitude 10° 23:13:52 10° 319° (NW) 2,482 5.3 -31.7°
Enters shadow 23:17:53 32° 278° (W) 1,427 3.5 -31.8°
